Total_Precipitation_Accumulation
0.32 0.33 0.30 0.23 0.15 0.24 0.36 0.31 0.22 0.18 0.20 0.24 0.29 0.36 0.36 0.27 0.22 0.19 0.21 0.35 0.32 0.28 0.31 0.31 0.31 0.24 0.21 0.17 0.12 0.08 0.07 0.07 0.08 0.06 0.10 0.15 0.18 0.13 0.09 0.06 0.05 0.02 0.01
0.39 0.38 0.38 0.31 0.30 0.35 0.38 0.26 0.18 0.19 0.20 0.23 0.19 0.18 0.20 0.22 0.21 0.15 0.12 0.18 0.27 0.24 0.25 0.30 0.33 0.30 0.30 0.31 0.24 0.16 0.10 0.07 0.06 0.04 0.02 0.05 0.13 0.13 0.14 0.18 0.27 0.09 0.02
0.31 0.36 0.36 0.33 0.37 0.34 0.29 0.21 0.15 0.14 0.14 0.13 0.08 0.05 0.04 0.06 0.06 0.06 0.05 0.05 0.11 0.21 0.23 0.27 0.29 0.27 0.28 0.35 0.35 0.23 0.13 0.08 0.04 0.02 0.01 0.03 0.05 0.06 0.09 0.12 0.17 0.08 0.04
0.13 0.17 0.19 0.22 0.21 0.21 0.21 0.15 0.10 0.07 0.06 0.05 0.03 0.02 0.01 0.02 0.04 0.03 0.03 0.02 0.03 0.09 0.25 0.34 0.35 0.30 0.29 0.36 0.40 0.29 0.15 0.08 0.04 0.02 0.03 0.04 0.06 0.05 0.05 0.06 0.06 0.03 0.02
0.02 0.06 0.08 0.10 0.10 0.12 0.13 0.09 0.06 0.05 0.03 0.03 0.02 0.02 0.02 0.02 0.03 0.03 0.03 0.04 0.04 0.05 0.08 0.16 0.27 0.28 0.32 0.36 0.46 0.47 0.32 0.15 0.06 0.03 0.05 0.08 0.08 0.06 0.07 0.08 0.07 0.02 0.01
0.00 0.01 0.02 0.02 0.02 0.02 0.03 0.05 0.06 0.06 0.04 0.04 0.03 0.02 0.03 0.02 0.02 0.06 0.06 0.03 0.03 0.04 0.06 0.06 0.13 0.19 0.27 0.33 0.40 0.41 0.37 0.29 0.17 0.08 0.06 0.05 0.04 0.03 0.01 0.01 0.02 0.02 0.01
0.00 0.00 0.00 0.00 0.00 0.00 0.00 0.00 0.01 0.02 0.02 0.03 0.04 0.02 0.02 0.02 0.03 0.06 0.06 0.02 0.04 0.11 0.15 0.11 0.12 0.23 0.29 0.28 0.25 0.26 0.30 0.31 0.25 0.17 0.12 0.08 0.07 0.04 0.02 0.01 0.01 0.01 0.01
0.00 0.00 0.00 0.00 0.00 0.00 0.00 0.00 0.00 0.00 0.00 0.00 0.01 0.01 0.00 0.00 0.01 0.03 0.06 0.07 0.08 0.15 0.19 0.18 0.20 0.24 0.24 0.25 0.25 0.20 0.23 0.24 0.26 0.25 0.20 0.15 0.12 0.09 0.06 0.03 0.02 0.01 0.01
0.00 0.00 0.00 0.00 0.00 0.00 0.00 0.00 0.00 0.01 0.00 0.00 0.00 0.01 0.01 0.00 0.00 0.02 0.06 0.09 0.11 0.14 0.14 0.17 0.18 0.18 0.22 0.21 0.20 0.18 0.20 0.19 0.24 0.31 0.31 0.26 0.21 0.19 0.17 0.11 0.08 0.05 0.03
0.00 0.00 0.00 0.00 0.00 0.00 0.00 0.00 0.00 0.01 0.01 0.01 0.01 0.01 0.02 0.03 0.04 0.03 0.05 0.11 0.14 0.13 0.12 0.12 0.11 0.14 0.19 0.20 0.22 0.21 0.19 0.17 0.24 0.35 0.38 0.37 0.32 0.24 0.21 0.20 0.23 0.22 0.13
0.02 0.01 0.00 0.00 0.00 0.00 0.00 0.00 0.00 0.01 0.02 0.02 0.03 0.03 0.03 0.04 0.08 0.09 0.05 0.07 0.13 0.08 0.06 0.05 0.04 0.07 0.11 0.17 0.24 0.27 0.21 0.24 0.28 0.34 0.36 0.36 0.36 0.31 0.24 0.21 0.29 0.36 0.34
0.06 0.03 0.01 0.01 0.01 0.00 0.00 0.00 0.01 0.02 0.03 0.04 0.06 0.06 0.05 0.04 0.05 0.10 0.10 0.09 0.08 0.03 0.04 0.07 0.08 0.11 0.15 0.26 0.30 0.26 0.29 0.31 0.31 0.33 0.35 0.33 0.29 0.25 0.20 0.19 0.23 0.28 0.33
0.08 0.06 0.04 0.03 0.02 0.01 0.00 0.00 0.01 0.02 0.03 0.04 0.05 0.04 0.04 0.04 0.05 0.08 0.08 0.07 0.06 0.07 0.10 0.12 0.16 0.23 0.31 0.46 0.37 0.34 0.33 0.33 0.31 0.32 0.32 0.28 0.23 0.17 0.13 0.12 0.14 0.19 0.25
0.19 0.14 0.10 0.07 0.04 0.02 0.01 0.01 0.01 0.02 0.02 0.03 0.03 0.07 0.11 0.08 0.09 0.07 0.06 0.07 0.09 0.13 0.17 0.17 0.23 0.35 0.50 0.57 0.53 0.37 0.21 0.15 0.11 0.12 0.13 0.12 0.09 0.07 0.07 0.08 0.10 0.14 0.17
0.24 0.20 0.15 0.10 0.07 0.04 0.03 0.02 0.01 0.01 0.01 0.02 0.03 0.08 0.14 0.14 0.13 0.13 0.13 0.14 0.21 0.17 0.21 0.30 0.37 0.45 0.45 0.48 0.39 0.29 0.11 0.06 0.04 0.03 0.03 0.03 0.03 0.02 0.01 0.01 0.03 0.08 0.13
0.20 0.18 0.14 0.10 0.07 0.05 0.04 0.03 0.02 0.02 0.03 0.04 0.07 0.09 0.14 0.18 0.17 0.19 0.21 0.24 0.31 0.28 0.28 0.35 0.42 0.44 0.36 0.26 0.18 0.18 0.10 0.05 0.03 0.02 0.01 0.01 0.01 0.00 0.00 0.00 0.00 0.01 0.03
0.19 0.17 0.15 0.12 0.08 0.06 0.06 0.05 0.04 0.04 0.04 0.03 0.04 0.07 0.12 0.18 0.21 0.22 0.26 0.29 0.31 0.35 0.31 0.30 0.35 0.31 0.26 0.18 0.12 0.10 0.06 0.03 0.02 0.01 0.01 0.00 0.00 0.00 0.00 0.00 0.00 0.00 0.00
0.19 0.19 0.17 0.14 0.10 0.07 0.07 0.05 0.04 0.04 0.05 0.04 0.03 0.06 0.08 0.10 0.14 0.13 0.15 0.21 0.28 0.38 0.39 0.24 0.21 0.20 0.20 0.17 0.14 0.11 0.07 0.03 0.02 0.03 0.02 0.01 0.00 0.00 0.00 0.00 0.00 0.00 0.00
0.13 0.16 0.16 0.14 0.11 0.10 0.08 0.06 0.05 0.05 0.05 0.05 0.05 0.09 0.10 0.11 0.11 0.05 0.02 0.05 0.15 0.30 0.37 0.28 0.20 0.19 0.18 0.14 0.13 0.11 0.07 0.05 0.03 0.03 0.02 0.02 0.01 0.01 0.00 0.00 0.00 0.00 0.00
0.06 0.10 0.13 0.14 0.13 0.11 0.09 0.08 0.07 0.06 0.05 0.05 0.07 0.08 0.07 0.08 0.09 0.05 0.01 0.02 0.08 0.17 0.23 0.24 0.28 0.34 0.29 0.17 0.13 0.11 0.08 0.05 0.03 0.02 0.01 0.01 0.00 0.00 0.00 0.00 0.00 0.00 0.00
0.04 0.08 0.13 0.14 0.13 0.11 0.08 0.09 0.09 0.07 0.06 0.06 0.08 0.08 0.05 0.03 0.02 0.01 0.00 0.01 0.06 0.12 0.21 0.27 0.42 0.66 0.60 0.39 0.21 0.12 0.09 0.06 0.04 0.02 0.02 0.01 0.00 0.00 0.00 0.00 0.00 0.00 0.00
0.04 0.06 0.10 0.13 0.12 0.10 0.09 0.07 0.07 0.08 0.09 0.09 0.10 0.10 0.07 0.03 0.00 0.00 0.00 0.01 0.02 0.07 0.17 0.29 0.45 0.60 0.62 0.52 0.34 0.20 0.10 0.06 0.06 0.05 0.03 0.02 0.01 0.00 0.00 0.00 0.00 0.00 0.00
0.04 0.05 0.06 0.11 0.12 0.13 0.12 0.07 0.06 0.08 0.09 0.11 0.13 0.13 0.10 0.05 0.01 0.00 0.00 0.00 0.01 0.03 0.07 0.15 0.31 0.47 0.52 0.47 0.33 0.20 0.12 0.08 0.06 0.05 0.04 0.02 0.00 0.00 0.00 0.00 0.00 0.00 0.00
0.03 0.04 0.04 0.08 0.11 0.15 0.16 0.12 0.09 0.08 0.11 0.12 0.13 0.13 0.11 0.06 0.02 0.00 0.00 0.00 0.00 0.01 0.04 0.08 0.16 0.27 0.31 0.28 0.22 0.17 0.14 0.11 0.09 0.07 0.03 0.02 0.01 0.00 0.00 0.00 0.00 0.00 0.00
0.03 0.02 0.02 0.04 0.08 0.14 0.17 0.15 0.13 0.10 0.11 0.14 0.15 0.16 0.13 0.07 0.02 0.00 0.00 0.00 0.01 0.01 0.03 0.05 0.08 0.11 0.12 0.10 0.09 0.10 0.11 0.09 0.08 0.07 0.03 0.01 0.01 0.01 0.01 0.01 0.00 0.00 0.00
0.04 0.02 0.02 0.03 0.05 0.14 0.19 0.18 0.16 0.12 0.13 0.16 0.21 0.22 0.19 0.10 0.03 0.01 0.01 0.00 0.00 0.01 0.01 0.01 0.02 0.03 0.03 0.03 0.03 0.04 0.04 0.04 0.03 0.03 0.02 0.01 0.01 0.03 0.04 0.01 0.00 0.00 0.00